HAWK-B

Last updated on Sun Sep 20 2026 00:03:35 GMT+0000 (Coordinated Universal Time)

1 43794U 18099AN 26262.37006486 .00003867 00000+0 16172-3 0 9999 2 43794 97.3868 312.6057 0030407 335.2973 24.6807 15.23775425427371
UTC large
Height (km)
Speed (km/s)
/
Latitude / Longitude
Inclination (degrees)
Orbital Period (minutes)
Azimuth
Elevation
Range (km)
Doppler Factor

Next 0 passes for location: London (51.5072 / 0.1276)

No passes found over London.
HAWK-B